GSAT0225 (GALILEO 29)

Last updated on Thu Sep 03 2026 00:02:49 GMT+0000 (Coordinated Universal Time)

1 59598U 24079A 26244.36555868 .00000023 00000+0 00000+0 0 9995 2 59598 55.1669 98.9501 0001053 114.8154 63.2768 1.70473998 14617
UTC large
Height (km)
Speed (km/s)
/
Latitude / Longitude
Inclination (degrees)
Orbital Period (minutes)
Azimuth
Elevation
Range (km)
Doppler Factor

Next 0 passes for location: London (51.5072 / 0.1276)

No passes found over London.
GSAT0225 (GALILEO 29)